Regional Weather Roundup
Issued by NWS Sioux Falls, SD

Home | Current Version | Previous Version | Graphics & Text | Print | Product List | Glossary On
Versions: 1 2 3 4 5 6 7 8 9 10 11 12 13 14 15 16 17 18 19 20 21 22 23 24 25 26 27 28 29 30 31 32 33 34 35 36 37 38 39 40 41 42 43 44 45 46 47 48 49 50
000
ASUS43 KFSD 301110
RWRFSD

WEATHER ROUNDUP FOR SE SOUTH DAKOTA/SW MINNESOTA/NW IOWA
NATIONAL WEATHER SERVICE SIOUX FALLS SD
600 AM CDT THU JUL 30 2015

NOTE: "FAIR" INDICATES FEW OR NO CLOUDS BELOW 12,000 FEET WITH NO
SIGNIFICANT WEATHER AND OR OBSTRUCTIONS TO VISIBILITY.


SDZ038>040-050-052>070-301200-
SOUTHEAST SOUTH DAKOTA

CITY           SKY/WX    TMP DP  RH WIND       PRES   REMARKS
BROOKINGS      CLEAR     55  52  88 NE5       30.14S
CHAMBERLAIN    CLEAR     57  53  86 CALM      30.14S
HURON          CLEAR     58  51  78 NE3       30.12R
MADISON        FAIR      57  55  94 N5        30.14S
MITCHELL       CLEAR     58  55  90 CALM      30.13R
SIOUX FALLS    PTCLDY    59  56  89 CALM      30.13R
WINNER         FAIR      66  50  56 W8        30.16R
YANKTON        MOCLDY    68  57  68 SW8       30.13S
$$

MNZ071-072-080-081-089-090-097-098-301200-
SOUTHWEST MINNESOTA

CITY           SKY/WX    TMP DP  RH WIND       PRES   REMARKS
FAIRMONT       CLEAR     63  52  67 SW7       30.10R
JACKSON        CLEAR     61  55  82 SW9       30.13R
LUVERNE        CLEAR     55  54  94 CALM      30.14S
MARSHALL       CLEAR     63  52  67 W12       30.10S
MONTEVIDEO     CLEAR     59  54  82 W3        30.08S
PIPESTONE      CLEAR     57  54  88 SW5       30.14R
REDWOOD FALLS  CLEAR     65  53  65 W10       30.07R
TRACY          CLEAR     61  54  77 W7        30.11S
WINDOM         CLEAR     57  54  88 CALM      30.11S
WORTHINGTON    CLEAR     61  54  77 SW6       30.14S
$$

IAZ001>003-012>014-020>022-031-032-NEZ013-014-SDZ071-301200-
NORTHWEST IOWA

CITY           SKY/WX    TMP DP  RH WIND       PRES   REMARKS
CHEROKEE         N/A     57  57 100 CALM      30.14S FOG
DENISON        CLEAR     61  57  88 SW3       30.15S
ESTHERVILLE    CLEAR     57  56  96 W6        30.12R
LE MARS        CLEAR     59  57  94 S3        30.15R
ORANGE CITY    CLEAR     57  55  94 CALM      30.14S
SHELDON        PTCLDY    54  54 100 S5        30.13R
SIOUX CITY     CLEAR     64  57  78 CALM      30.15R
SPENCER        CLEAR     56  52  86 CALM      30.13S
STORM LAKE     CLEAR     59  57  94 W9        30.15S
$$

ABBREVIATIONS USED IN REMARKS
   TC - TEMPERATURE IN CELSIUS
  WCI - WIND CHILL INDEX
   HX - HEAT INDEX
  VSB - VISIBILITY




USA.gov is the U.S. government's official web portal to all federal, state and local government web resources and services.